QPF
0.01 0.02 0.03 0.04 0.04 0.06 0.04 0.01 0.00 0.00 0.00 0.00 0.00 0.01 0.01 0.00 0.02 0.04 0.08 0.08 0.03 0.02 0.02 0.02 0.03 0.04 0.04 0.04 0.04 0.04 0.03 0.05 0.07 0.07 0.09 0.12 0.15 0.15 0.11 0.09 0.08 0.08 0.08 0.06 0.05 0.04 0.03 0.04 0.04
0.01 0.01 0.02 0.03 0.05 0.05 0.03 0.00 0.00 0.00 0.00 0.00 0.00 0.00 0.00 0.00 0.01 0.03 0.06 0.06 0.02 0.02 0.02 0.02 0.03 0.04 0.03 0.02 0.03 0.03 0.02 0.03 0.05 0.05 0.05 0.08 0.11 0.10 0.07 0.07 0.07 0.07 0.07 0.06 0.04 0.03 0.03 0.03 0.03
0.01 0.01 0.02 0.05 0.07 0.04 0.03 0.01 0.00 0.00 0.00 0.00 0.00 0.00 0.00 0.01 0.01 0.03 0.05 0.03 0.00 0.00 0.01 0.02 0.03 0.04 0.03 0.03 0.03 0.03 0.03 0.02 0.03 0.03 0.04 0.05 0.06 0.06 0.06 0.06 0.06 0.06 0.07 0.07 0.05 0.03 0.04 0.04 0.03
0.00 0.01 0.02 0.06 0.07 0.03 0.01 0.01 0.00 0.00 0.00 0.00 0.00 0.00 0.01 0.01 0.01 0.03 0.03 0.01 0.00 0.00 0.00 0.00 0.01 0.03 0.06 0.06 0.06 0.05 0.04 0.03 0.03 0.03 0.04 0.05 0.05 0.06 0.05 0.04 0.05 0.05 0.05 0.06 0.05 0.04 0.03 0.02 0.03
0.00 0.00 0.02 0.06 0.09 0.05 0.02 0.01 0.00 0.01 0.01 0.01 0.00 0.00 0.01 0.02 0.02 0.01 0.02 0.01 0.00 0.00 0.00 0.00 0.01 0.01 0.03 0.08 0.11 0.08 0.07 0.05 0.04 0.04 0.06 0.06 0.07 0.06 0.05 0.05 0.05 0.06 0.05 0.04 0.03 0.02 0.02 0.02 0.02
0.00 0.01 0.02 0.04 0.07 0.05 0.03 0.02 0.01 0.01 0.01 0.03 0.01 0.01 0.02 0.03 0.02 0.01 0.01 0.01 0.02 0.01 0.02 0.01 0.01 0.01 0.01 0.05 0.07 0.08 0.10 0.10 0.10 0.10 0.09 0.08 0.08 0.07 0.06 0.05 0.05 0.05 0.04 0.03 0.02 0.01 0.01 0.01 0.02
0.00 0.01 0.03 0.05 0.09 0.06 0.02 0.02 0.01 0.01 0.02 0.05 0.02 0.02 0.03 0.05 0.03 0.01 0.01 0.01 0.01 0.01 0.00 0.00 0.00 0.00 0.01 0.03 0.05 0.09 0.13 0.18 0.21 0.17 0.12 0.10 0.10 0.09 0.08 0.06 0.05 0.04 0.03 0.02 0.01 0.01 0.01 0.01 0.02
0.00 0.00 0.01 0.03 0.03 0.04 0.02 0.02 0.01 0.01 0.02 0.01 0.01 0.02 0.03 0.04 0.03 0.02 0.01 0.01 0.01 0.01 0.00 0.00 0.00 0.00 0.00 0.01 0.03 0.08 0.13 0.17 0.20 0.17 0.13 0.12 0.12 0.09 0.07 0.04 0.04 0.04 0.03 0.02 0.01 0.01 0.01 0.01 0.02
0.00 0.01 0.01 0.02 0.02 0.02 0.03 0.04 0.01 0.01 0.02 0.01 0.01 0.03 0.03 0.06 0.04 0.03 0.01 0.02 0.02 0.01 0.01 0.00 0.00 0.00 0.00 0.00 0.01 0.02 0.05 0.10 0.13 0.12 0.09 0.08 0.07 0.06 0.05 0.04 0.03 0.03 0.02 0.01 0.01 0.01 0.02 0.02 0.02
0.00 0.01 0.01 0.01 0.01 0.02 0.04 0.04 0.01 0.01 0.02 0.01 0.01 0.03 0.06 0.13 0.10 0.04 0.01 0.01 0.01 0.01 0.02 0.01 0.00 0.00 0.00 0.00 0.01 0.02 0.03 0.05 0.05 0.05 0.03 0.03 0.03 0.04 0.04 0.03 0.03 0.02 0.02 0.02 0.02 0.02 0.02 0.02 0.02
0.00 0.01 0.01 0.01 0.01 0.01 0.03 0.02 0.01 0.01 0.01 0.01 0.01 0.03 0.08 0.09 0.07 0.03 0.03 0.01 0.00 0.01 0.02 0.01 0.00 0.01 0.01 0.01 0.01 0.01 0.02 0.02 0.02 0.01 0.02 0.01 0.02 0.02 0.02 0.01 0.01 0.01 0.01 0.01 0.01 0.01 0.03 0.03 0.03
0.00 0.00 0.00 0.00 0.01 0.01 0.01 0.01 0.01 0.03 0.03 0.02 0.01 0.01 0.04 0.05 0.05 0.04 0.03 0.02 0.01 0.01 0.01 0.01 0.01 0.01 0.01 0.01 0.01 0.01 0.01 0.01 0.01 0.01 0.01 0.01 0.02 0.02 0.01 0.02 0.02 0.01 0.02 0.02 0.02 0.02 0.03 0.04 0.04
0.00 0.00 0.00 0.00 0.00 0.01 0.00 0.01 0.00 0.02 0.04 0.03 0.01 0.01 0.01 0.03 0.03 0.02 0.01 0.01 0.01 0.01 0.01 0.01 0.01 0.00 0.01 0.01 0.02 0.02 0.02 0.01 0.01 0.01 0.01 0.01 0.01 0.01 0.02 0.03 0.03 0.02 0.02 0.02 0.02 0.03 0.02 0.02 0.03
0.00 0.00 0.00 0.00 0.00 0.00 0.00 0.01 0.01 0.01 0.02 0.05 0.03 0.01 0.01 0.01 0.01 0.00 0.00 0.00 0.01 0.00 0.00 0.00 0.01 0.01 0.00 0.01 0.01 0.02 0.02 0.01 0.01 0.02 0.01 0.01 0.01 0.01 0.01 0.02 0.03 0.03 0.03 0.02 0.02 0.02 0.02 0.02 0.03
0.00 0.00 0.00 0.00 0.00 0.00 0.00 0.02 0.02 0.02 0.01 0.02 0.03 0.01 0.01 0.00 0.00 0.00 0.00 0.00 0.01 0.01 0.01 0.01 0.01 0.02 0.02 0.01 0.01 0.01 0.01 0.02 0.02 0.02 0.02 0.02 0.01 0.01 0.01 0.02 0.02 0.03 0.02 0.02 0.02 0.01 0.02 0.02 0.02
0.00 0.00 0.00 0.00 0.00 0.00 0.00 0.01 0.02 0.02 0.01 0.01 0.02 0.07 0.02 0.00 0.00 0.00 0.00 0.01 0.01 0.01 0.01 0.02 0.02 0.03 0.03 0.03 0.02 0.02 0.02 0.02 0.03 0.02 0.02 0.04 0.01 0.01 0.01 0.01 0.02 0.02 0.01 0.01 0.01 0.02 0.02 0.02 0.01
0.00 0.00 0.00 0.00 0.00 0.00 0.00 0.01 0.02 0.03 0.01 0.01 0.01 0.06 0.02 0.01 0.00 0.00 0.00 0.00 0.00 0.00 0.01 0.01 0.01 0.02 0.03 0.03 0.03 0.02 0.03 0.03 0.04 0.03 0.02 0.03 0.02 0.02 0.02 0.02 0.02 0.01 0.01 0.01 0.02 0.04 0.03 0.02 0.03
0.00 0.00 0.00 0.00 0.00 0.00 0.00 0.01 0.01 0.03 0.03 0.01 0.01 0.01 0.02 0.01 0.00 0.00 0.00 0.00 0.00 0.00 0.00 0.00 0.01 0.01 0.02 0.01 0.03 0.02 0.03 0.04 0.05 0.03 0.02 0.02 0.02 0.02 0.03 0.03 0.02 0.01 0.01 0.01 0.02 0.03 0.02 0.02 0.03
0.00 0.00 0.00 0.00 0.00 0.01 0.01 0.01 0.02 0.04 0.05 0.03 0.01 0.01 0.02 0.01 0.01 0.01 0.00 0.00 0.00 0.00 0.00 0.00 0.00 0.01 0.01 0.02 0.03 0.03 0.04 0.05 0.04 0.03 0.02 0.01 0.02 0.02 0.02 0.02 0.02 0.02 0.02 0.02 0.02 0.02 0.02 0.03 0.03
0.00 0.00 0.00 0.00 0.00 0.01 0.01 0.02 0.02 0.03 0.04 0.03 0.02 0.01 0.01 0.01 0.01 0.01 0.01 0.01 0.00 0.00 0.00 0.00 0.00 0.00 0.01 0.03 0.05 0.04 0.04 0.05 0.04 0.02 0.01 0.01 0.01 0.01 0.01 0.02 0.02 0.02 0.02 0.03 0.05 0.05 0.05 0.05 0.04
0.00 0.00 0.00 0.00 0.00 0.01 0.02 0.03 0.02 0.02 0.04 0.06 0.04 0.04 0.02 0.01 0.01 0.02 0.03 0.01 0.00 0.00 0.00 0.00 0.00 0.00 0.01 0.02 0.03 0.02 0.03 0.03 0.02 0.01 0.01 0.02 0.01 0.01 0.02 0.02 0.03 0.02 0.02 0.03 0.03 0.04 0.05 0.07 0.06
0.00 0.00 0.00 0.00 0.00 0.01 0.01 0.03 0.03 0.02 0.03 0.08 0.09 0.07 0.04 0.02 0.01 0.01 0.01 0.00 0.00 0.00 0.00 0.00 0.00 0.01 0.01 0.01 0.01 0.01 0.02 0.02 0.02 0.03 0.04 0.06 0.05 0.04 0.04 0.03 0.03 0.02 0.02 0.02 0.02 0.02 0.04 0.05 0.04
0.00 0.00 0.00 0.00 0.00 0.01 0.01 0.01 0.01 0.02 0.02 0.05 0.09 0.08 0.06 0.03 0.02 0.01 0.01 0.00 0.00 0.00 0.00 0.01 0.02 0.01 0.01 0.02 0.02 0.03 0.03 0.04 0.05 0.04 0.05 0.04 0.03 0.04 0.05 0.03 0.02 0.02 0.02 0.02 0.02 0.04 0.06 0.05 0.04
0.00 0.00 0.00 0.00 0.00 0.00 0.01 0.02 0.01 0.01 0.01 0.04 0.06 0.04 0.05 0.02 0.01 0.01 0.01 0.01 0.01 0.02 0.03 0.04 0.05 0.03 0.02 0.02 0.03 0.03 0.04 0.05 0.04 0.03 0.03 0.02 0.03 0.02 0.03 0.04 0.02 0.02 0.03 0.03 0.03 0.04 0.05 0.05 0.04
0.00 0.00 0.00 0.00 0.00 0.00 0.00 0.01 0.01 0.01 0.02 0.04 0.04 0.04 0.03 0.02 0.01 0.01 0.02 0.03 0.03 0.04 0.06 0.13 0.16 0.10 0.05 0.03 0.02 0.02 0.03 0.04 0.03 0.03 0.03 0.02 0.02 0.02 0.02 0.03 0.03 0.03 0.04 0.04 0.04 0.04 0.03 0.04 0.05
0.00 0.00 0.00 0.00 0.00 0.00 0.00 0.01 0.08 0.08 0.05 0.03 0.03 0.03 0.02 0.02 0.02 0.02 0.02 0.02 0.02 0.03 0.04 0.06 0.08 0.08 0.08 0.04 0.02 0.04 0.04 0.04 0.04 0.03 0.02 0.02 0.02 0.02 0.02 0.03 0.04 0.03 0.04 0.04 0.04 0.05 0.04 0.05 0.06
0.00 0.00 0.00 0.00 0.00 0.00 0.00 0.02 0.07 0.08 0.05 0.05 0.03 0.02 0.02 0.03 0.03 0.04 0.03 0.02 0.03 0.04 0.04 0.04 0.06 0.05 0.04 0.03 0.03 0.04 0.04 0.03 0.03 0.03 0.02 0.01 0.02 0.02 0.02 0.03 0.04 0.04 0.04 0.05 0.05 0.05 0.04 0.05 0.06
0.00 0.00 0.00 0.00 0.00 0.00 0.01 0.02 0.03 0.03 0.04 0.02 0.02 0.02 0.02 0.03 0.04 0.07 0.08 0.06 0.06 0.06 0.04 0.03 0.03 0.03 0.02 0.03 0.04 0.05 0.05 0.04 0.03 0.03 0.02 0.02 0.03 0.03 0.03 0.04 0.05 0.05 0.04 0.05 0.06 0.05 0.04 0.05 0.07
0.00 0.00 0.00 0.01 0.00 0.01 0.03 0.03 0.03 0.04 0.03 0.02 0.03 0.03 0.02 0.02 0.02 0.05 0.08 0.09 0.08 0.06 0.06 0.05 0.04 0.04 0.03 0.04 0.05 0.05 0.06 0.05 0.04 0.03 0.03 0.03 0.03 0.04 0.05 0.05 0.06 0.07 0.05 0.05 0.06 0.07 0.09 0.09 0.08
0.00 0.00 0.00 0.00 0.00 0.00 0.01 0.03 0.03 0.03 0.03 0.03 0.05 0.04 0.03 0.02 0.02 0.04 0.08 0.08 0.10 0.07 0.05 0.05 0.06 0.06 0.07 0.07 0.07 0.05 0.04 0.05 0.05 0.04 0.03 0.04 0.03 0.03 0.04 0.06 0.06 0.06 0.05 0.06 0.06 0.06 0.08 0.11 0.12
MSLP
1005.04 1005.98 1007.29 1008.80 1010.30 1011.58 1012.50 1013.00 1013.13 1013.00 1012.78 1012.63 1012.67 1012.93 1013.40 1013.98 1014.54 1014.96 1015.15 1015.10 1014.84 1014.45 1014.05 1013.70 1013.47 1013.37 1013.35 1013.36 1013.34 1013.25 1013.09 1012.90 1012.71 1012.60 1012.60 1012.73 1012.97 1013.28 1013.59 1013.85 1014.02 1014.11 1014.12 1014.10 1014.08 1014.11 1014.20 1014.34 1014.53
1005.80 1007.02 1008.52 1010.09 1011.51 1012.60 1013.26 1013.46 1013.30 1012.91 1012.50 1012.24 1012.22 1012.48 1012.98 1013.60 1014.21 1014.67 1014.91 1014.91 1014.71 1014.39 1014.05 1013.78 1013.62 1013.57 1013.60 1013.65 1013.67 1013.61 1013.49 1013.33 1013.18 1013.09 1013.11 1013.24 1013.46 1013.74 1014.01 1014.22 1014.36 1014.41 1014.41 1014.38 1014.36 1014.40 1014.49 1014.64 1014.83
1006.83 1008.27 1009.88 1011.42 1012.68 1013.53 1013.88 1013.78 1013.33 1012.74 1012.18 1011.85 1011.81 1012.10 1012.64 1013.30 1013.94 1014.43 1014.70 1014.73 1014.56 1014.29 1014.02 1013.81 1013.71 1013.73 1013.82 1013.92 1013.98 1013.98 1013.90 1013.78 1013.67 1013.60 1013.62 1013.72 1013.91 1014.12 1014.33 1014.49 1014.59 1014.62 1014.62 1014.61 1014.62 1014.69 1014.81 1014.98 1015.19
1008.00 1009.58 1011.19 1012.62 1013.68 1014.24 1014.30 1013.92 1013.25 1012.50 1011.87 1011.52 1011.52 1011.85 1012.43 1013.12 1013.78 1014.28 1014.55 1014.59 1014.45 1014.22 1013.99 1013.85 1013.81 1013.89 1014.03 1014.18 1014.30 1014.34 1014.31 1014.23 1014.14 1014.09 1014.09 1014.17 1014.30 1014.45 1014.59 1014.70 1014.77 1014.79 1014.81 1014.83 1014.89 1015.01 1015.17 1015.37 1015.59
1009.15 1010.75 1012.28 1013.53 1014.35 1014.64 1014.44 1013.84 1013.03 1012.22 1011.60 1011.29 1011.35 1011.75 1012.37 1013.08 1013.74 1014.22 1014.48 1014.52 1014.40 1014.21 1014.04 1013.94 1013.96 1014.08 1014.26 1014.45 1014.59 1014.67 1014.68 1014.63 1014.57 1014.52 1014.52 1014.57 1014.65 1014.74 1014.83 1014.90 1014.94 1014.97 1015.01 1015.08 1015.20 1015.36 1015.56 1015.79 1016.02
1010.10 1011.62 1012.98 1014.01 1014.57 1014.63 1014.24 1013.53 1012.68 1011.91 1011.37 1011.17 1011.33 1011.80 1012.46 1013.18 1013.81 1014.26 1014.50 1014.54 1014.44 1014.29 1014.17 1014.12 1014.18 1014.33 1014.52 1014.71 1014.87 1014.95 1014.98 1014.96 1014.92 1014.90 1014.90 1014.93 1014.98 1015.04 1015.09 1015.12 1015.15 1015.20 1015.26 1015.37 1015.53 1015.73 1015.96 1016.20 1016.44
1010.72 1012.07 1013.20 1013.97 1014.30 1014.18 1013.69 1012.97 1012.20 1011.56 1011.18 1011.14 1011.42 1011.97 1012.65 1013.35 1013.94 1014.36 1014.57 1014.61 1014.55 1014.45 1014.37 1014.37 1014.46 1014.61 1014.80 1014.97 1015.10 1015.18 1015.21 1015.20 1015.20 1015.20 1015.23 1015.27 1015.32 1015.36 1015.39 1015.41 1015.44 1015.48 1015.56 1015.70 1015.88 1016.10 1016.34 1016.58 1016.81
1010.99 1012.10 1012.96 1013.48 1013.60 1013.37 1012.86 1012.23 1011.62 1011.18 1011.02 1011.16 1011.57 1012.18 1012.87 1013.53 1014.07 1014.44 1014.63 1014.69 1014.66 1014.62 1014.61 1014.66 1014.77 1014.91 1015.07 1015.19 1015.29 1015.34 1015.36 1015.38 1015.40 1015.45 1015.52 1015.60 1015.68 1015.73 1015.76 1015.77 1015.78 1015.82 1015.90 1016.03 1016.22 1016.43 1016.67 1016.90 1017.10
1010.97 1011.79 1012.37 1012.64 1012.61 1012.32 1011.87 1011.38 1010.99 1010.81 1010.88 1011.20 1011.73 1012.37 1013.05 1013.65 1014.13 1014.44 1014.62 1014.70 1014.73 1014.76 1014.82 1014.92 1015.05 1015.18 1015.30 1015.38 1015.42 1015.44 1015.45 1015.49 1015.56 1015.67 1015.81 1015.94 1016.06 1016.14 1016.17 1016.18 1016.17 1016.19 1016.25 1016.36 1016.52 1016.72 1016.94 1017.15 1017.34
1010.79 1011.31 1011.61 1011.66 1011.51 1011.20 1010.85 1010.55 1010.40 1010.46 1010.75 1011.23 1011.84 1012.50 1013.12 1013.65 1014.05 1014.32 1014.48 1014.59 1014.68 1014.80 1014.93 1015.09 1015.25 1015.38 1015.47 1015.50 1015.50 1015.49 1015.51 1015.57 1015.69 1015.87 1016.07 1016.27 1016.44 1016.55 1016.60 1016.60 1016.57 1016.56 1016.58 1016.66 1016.79 1016.96 1017.15 1017.35 1017.53
1010.62 1010.86 1010.90 1010.77 1010.51 1010.22 1009.97 1009.85 1009.91 1010.19 1010.65 1011.24 1011.88 1012.51 1013.06 1013.50 1013.82 1014.03 1014.19 1014.33 1014.49 1014.69 1014.91 1015.14 1015.33 1015.47 1015.54 1015.55 1015.53 1015.51 1015.54 1015.63 1015.80 1016.04 1016.31 1016.57 1016.79 1016.93 1016.99 1016.99 1016.94 1016.89 1016.88 1016.92 1017.02 1017.17 1017.35 1017.54 1017.73
1010.62 1010.61 1010.43 1010.13 1009.80 1009.51 1009.35 1009.37 1009.59 1010.02 1010.58 1011.22 1011.85 1012.42 1012.88 1013.21 1013.44 1013.61 1013.76 1013.93 1014.16 1014.43 1014.73 1015.02 1015.26 1015.43 1015.52 1015.53 1015.51 1015.50 1015.55 1015.68 1015.89 1016.18 1016.50 1016.81 1017.06 1017.23 1017.30 1017.29 1017.24 1017.17 1017.13 1017.15 1017.23 1017.37 1017.55 1017.76 1017.97
1010.88 1010.67 1010.31 1009.88 1009.47 1009.17 1009.06 1009.16 1009.48 1009.97 1010.56 1011.19 1011.76 1012.24 1012.59 1012.83 1012.98 1013.10 1013.24 1013.44 1013.71 1014.04 1014.40 1014.76 1015.05 1015.27 1015.39 1015.43 1015.45 1015.47 1015.55 1015.71 1015.96 1016.28 1016.62 1016.96 1017.23 1017.41 1017.49 1017.49 1017.43 1017.37 1017.33 1017.34 1017.43 1017.58 1017.79 1018.02 1018.26
1011.42 1011.06 1010.56 1010.02 1009.55 1009.23 1009.12 1009.24 1009.57 1010.05 1010.60 1011.15 1011.64 1012.01 1012.26 1012.41 1012.50 1012.58 1012.71 1012.92 1013.21 1013.58 1013.98 1014.38 1014.72 1014.99 1015.16 1015.27 1015.34 1015.41 1015.53 1015.72 1015.99 1016.31 1016.66 1016.99 1017.26 1017.44 1017.54 1017.56 1017.53 1017.49 1017.48 1017.52 1017.64 1017.82 1018.06 1018.33 1018.61
1012.14 1011.67 1011.08 1010.48 1009.97 1009.62 1009.48 1009.56 1009.83 1010.23 1010.69 1011.13 1011.50 1011.77 1011.93 1012.02 1012.06 1012.12 1012.24 1012.44 1012.74 1013.11 1013.52 1013.94 1014.32 1014.63 1014.88 1015.06 1015.20 1015.34 1015.50 1015.72 1015.98 1016.29 1016.61 1016.91 1017.16 1017.35 1017.46 1017.51 1017.53 1017.55 1017.59 1017.69 1017.86 1018.09 1018.37 1018.68 1018.99
1012.90 1012.38 1011.76 1011.14 1010.61 1010.24 1010.06 1010.06 1010.22 1010.49 1010.81 1011.11 1011.35 1011.53 1011.63 1011.68 1011.71 1011.77 1011.88 1012.07 1012.34 1012.69 1013.08 1013.49 1013.89 1014.25 1014.55 1014.81 1015.04 1015.25 1015.46 1015.69 1015.95 1016.22 1016.49 1016.75 1016.97 1017.15 1017.29 1017.40 1017.48 1017.57 1017.70 1017.86 1018.09 1018.36 1018.68 1019.02 1019.35
1013.55 1013.04 1012.45 1011.87 1011.37 1010.99 1010.77 1010.67 1010.70 1010.80 1010.93 1011.07 1011.19 1011.28 1011.34 1011.39 1011.44 1011.52 1011.64 1011.81 1012.06 1012.36 1012.70 1013.08 1013.47 1013.86 1014.22 1014.56 1014.88 1015.16 1015.42 1015.67 1015.90 1016.12 1016.34 1016.54 1016.73 1016.91 1017.08 1017.24 1017.41 1017.59 1017.80 1018.04 1018.32 1018.63 1018.97 1019.32 1019.66
1013.96 1013.53 1013.05 1012.58 1012.16 1011.82 1011.55 1011.35 1011.21 1011.11 1011.05 1011.01 1010.99 1011.00 1011.04 1011.11 1011.20 1011.33 1011.47 1011.65 1011.86 1012.10 1012.39 1012.72 1013.09 1013.49 1013.91 1014.32 1014.71 1015.07 1015.38 1015.64 1015.86 1016.03 1016.19 1016.34 1016.50 1016.68 1016.88 1017.10 1017.35 1017.61 1017.90 1018.20 1018.52 1018.86 1019.20 1019.54 1019.87
1014.12 1013.82 1013.52 1013.23 1012.95 1012.68 1012.39 1012.08 1011.75 1011.43 1011.12 1010.88 1010.71 1010.64 1010.66 1010.76 1010.92 1011.12 1011.31 1011.51 1011.70 1011.90 1012.13 1012.41 1012.75 1013.15 1013.61 1014.08 1014.56 1014.98 1015.34 1015.62 1015.82 1015.96 1016.07 1016.17 1016.30 1016.48 1016.71 1016.99 1017.31 1017.65 1018.00 1018.35 1018.69 1019.02 1019.34 1019.66 1019.96
1014.04 1013.96 1013.91 1013.86 1013.76 1013.58 1013.28 1012.85 1012.32 1011.72 1011.15 1010.66 1010.31 1010.13 1010.13 1010.27 1010.51 1010.80 1011.07 1011.31 1011.51 1011.69 1011.88 1012.11 1012.42 1012.83 1013.31 1013.85 1014.39 1014.88 1015.29 1015.60 1015.80 1015.91 1015.98 1016.05 1016.16 1016.33 1016.58 1016.91 1017.29 1017.68 1018.08 1018.45 1018.78 1019.09 1019.38 1019.66 1019.93
1013.85 1014.04 1014.28 1014.51 1014.64 1014.56 1014.24 1013.67 1012.90 1012.01 1011.12 1010.34 1009.77 1009.46 1009.41 1009.58 1009.90 1010.29 1010.67 1010.98 1011.23 1011.41 1011.58 1011.79 1012.09 1012.50 1013.01 1013.59 1014.19 1014.74 1015.21 1015.54 1015.75 1015.86 1015.91 1015.95 1016.04 1016.22 1016.49 1016.85 1017.26 1017.69 1018.10 1018.47 1018.79 1019.06 1019.30 1019.53 1019.77
1013.69 1014.18 1014.75 1015.27 1015.60 1015.63 1015.27 1014.54 1013.50 1012.27 1011.03 1009.93 1009.11 1008.63 1008.50 1008.68 1009.08 1009.58 1010.07 1010.49 1010.80 1011.03 1011.22 1011.43 1011.72 1012.13 1012.66 1013.28 1013.93 1014.53 1015.05 1015.42 1015.65 1015.76 1015.80 1015.84 1015.92 1016.10 1016.38 1016.75 1017.18 1017.62 1018.04 1018.40 1018.69 1018.92 1019.11 1019.30 1019.51
1013.67 1014.47 1015.35 1016.15 1016.66 1016.76 1016.34 1015.42 1014.09 1012.51 1010.91 1009.47 1008.37 1007.70 1007.48 1007.65 1008.10 1008.70 1009.31 1009.84 1010.25 1010.55 1010.77 1011.00 1011.30 1011.72 1012.26 1012.90 1013.58 1014.23 1014.78 1015.19 1015.45 1015.57 1015.63 1015.66 1015.75 1015.92 1016.20 1016.58 1017.01 1017.45 1017.86 1018.20 1018.47 1018.67 1018.83 1018.98 1019.17
1013.86 1014.93 1016.09 1017.10 1017.75 1017.87 1017.36 1016.25 1014.64 1012.73 1010.77 1009.02 1007.65 1006.78 1006.45 1006.58 1007.07 1007.75 1008.47 1009.11 1009.62 1009.98 1010.26 1010.51 1010.82 1011.25 1011.79 1012.44 1013.14 1013.81 1014.39 1014.83 1015.11 1015.27 1015.34 1015.38 1015.47 1015.65 1015.92 1016.30 1016.73 1017.16 1017.56 1017.89 1018.14 1018.32 1018.46 1018.60 1018.77
1014.23 1015.52 1016.88 1018.04 1018.76 1018.86 1018.25 1016.95 1015.09 1012.90 1010.66 1008.63 1007.03 1005.99 1005.55 1005.65 1006.14 1006.87 1007.67 1008.39 1008.97 1009.40 1009.72 1010.00 1010.32 1010.73 1011.27 1011.91 1012.60 1013.28 1013.87 1014.34 1014.65 1014.82 1014.91 1014.98 1015.07 1015.25 1015.52 1015.89 1016.31 1016.75 1017.14 1017.47 1017.72 1017.90 1018.03 1018.17 1018.34
1014.70 1016.13 1017.59 1018.81 1019.53 1019.58 1018.87 1017.43 1015.40 1013.01 1010.58 1008.37 1006.62 1005.46 1004.93 1004.98 1005.46 1006.20 1007.02 1007.79 1008.41 1008.88 1009.22 1009.50 1009.81 1010.20 1010.71 1011.33 1012.00 1012.66 1013.25 1013.73 1014.05 1014.25 1014.36 1014.45 1014.55 1014.73 1015.01 1015.37 1015.79 1016.22 1016.62 1016.96 1017.22 1017.41 1017.57 1017.71 1017.89
1015.16 1016.63 1018.09 1019.28 1019.95 1019.93 1019.14 1017.62 1015.51 1013.06 1010.57 1008.30 1006.49 1005.28 1004.70 1004.69 1005.13 1005.84 1006.64 1007.39 1008.00 1008.46 1008.79 1009.06 1009.34 1009.70 1010.16 1010.73 1011.36 1012.00 1012.57 1013.04 1013.37 1013.59 1013.72 1013.82 1013.94 1014.13 1014.40 1014.76 1015.17 1015.61 1016.02 1016.38 1016.67 1016.90 1017.08 1017.24 1017.43
1015.47 1016.88 1018.25 1019.34 1019.92 1019.83 1019.00 1017.49 1015.43 1013.04 1010.63 1008.43 1006.68 1005.48 1004.88 1004.83 1005.20 1005.83 1006.55 1007.22 1007.77 1008.18 1008.46 1008.69 1008.93 1009.24 1009.66 1010.17 1010.75 1011.34 1011.88 1012.33 1012.66 1012.88 1013.02 1013.14 1013.27 1013.46 1013.74 1014.10 1014.51 1014.95 1015.38 1015.77 1016.09 1016.35 1016.57 1016.77 1016.97
1015.56 1016.82 1018.02 1018.95 1019.40 1019.26 1018.45 1017.03 1015.14 1012.96 1010.76 1008.76 1007.16 1006.05 1005.48 1005.38 1005.66 1006.17 1006.75 1007.29 1007.73 1008.04 1008.25 1008.41 1008.60 1008.86 1009.22 1009.68 1010.20 1010.73 1011.23 1011.65 1011.96 1012.18 1012.33 1012.45 1012.59 1012.79 1013.06 1013.42 1013.84 1014.28 1014.72 1015.13 1015.48 1015.78 1016.03 1016.26 1016.49
1015.41 1016.46 1017.44 1018.17 1018.49 1018.31 1017.58 1016.33 1014.70 1012.83 1010.95 1009.24 1007.86 1006.89 1006.36 1006.22 1006.39 1006.73 1007.14 1007.51 1007.80 1007.99 1008.11 1008.22 1008.35 1008.57 1008.88 1009.28 1009.75 1010.22 1010.66 1011.03 1011.32 1011.51 1011.66 1011.78 1011.92 1012.12 1012.40 1012.75 1013.16 1013.60 1014.05 1014.47 1014.84 1015.17 1015.46 1015.72 1015.97
Thickness
5862 5862 5858 5843 5815 5787 5780 5794 5806 5804 5802 5807 5810 5804 5793 5784 5772 5758 5776 5783 5782 5781 5781 5780 5781 5781 5781 5781 5780 5780 5780 5779 5778 5777 5776 5774 5773 5771 5770 5768 5766 5765 5764 5763 5761 5760 5758 5757 5756
5865 5863 5850 5829 5793 5768 5777 5800 5804 5807 5809 5813 5811 5804 5794 5783 5785 5779 5780 5782 5783 5781 5780 5780 5780 5780 5779 5779 5779 5778 5778 5777 5776 5775 5774 5772 5771 5770 5768 5766 5765 5763 5762 5761 5760 5758 5757 5755 5754
5867 5861 5835 5811 5787 5774 5782 5803 5809 5815 5820 5818 5807 5804 5794 5784 5786 5783 5784 5784 5782 5781 5780 5779 5779 5778 5778 5777 5777 5776 5776 5775 5774 5773 5772 5770 5769 5768 5767 5765 5763 5762 5760 5759 5758 5757 5755 5754 5752
5863 5846 5828 5802 5789 5799 5803 5811 5818 5814 5816 5816 5808 5795 5796 5799 5794 5789 5787 5785 5782 5780 5779 5779 5778 5777 5776 5776 5775 5774 5774 5774 5773 5771 5770 5769 5768 5767 5765 5763 5762 5761 5759 5758 5757 5755 5754 5752 5751
5858 5831 5805 5790 5795 5808 5817 5821 5825 5817 5811 5808 5806 5789 5785 5798 5798 5792 5788 5785 5782 5780 5779 5778 5777 5776 5775 5774 5773 5773 5772 5771 5771 5770 5768 5767 5766 5765 5763 5762 5761 5760 5758 5757 5755 5754 5753 5751 5750
5838 5819 5790 5780 5795 5811 5819 5827 5826 5815 5808 5806 5802 5789 5783 5796 5794 5791 5789 5785 5783 5781 5779 5777 5776 5775 5774 5773 5773 5773 5771 5770 5769 5768 5767 5766 5765 5763 5762 5761 5759 5758 5757 5756 5754 5753 5752 5751 5749
5829 5809 5794 5794 5798 5807 5820 5830 5826 5815 5808 5808 5808 5789 5784 5791 5795 5794 5790 5786 5783 5780 5778 5777 5775 5774 5773 5772 5771 5771 5770 5769 5768 5766 5765 5764 5763 5762 5760 5759 5758 5757 5756 5755 5753 5752 5751 5750 5748
5843 5814 5800 5799 5802 5808 5827 5833 5831 5823 5815 5820 5815 5793 5785 5794 5798 5794 5788 5785 5782 5779 5777 5776 5774 5773 5772 5771 5770 5769 5768 5767 5766 5765 5764 5763 5762 5760 5759 5758 5756 5756 5755 5754 5753 5751 5750 5749 5747
5852 5809 5794 5805 5810 5815 5832 5829 5828 5834 5824 5820 5819 5811 5806 5805 5800 5791 5783 5779 5778 5777 5777 5776 5774 5773 5772 5771 5769 5768 5767 5766 5765 5763 5762 5761 5760 5759 5758 5756 5755 5754 5753 5753 5752 5751 5750 5748 5747
5837 5806 5813 5830 5832 5828 5832 5831 5829 5822 5814 5810 5810 5810 5810 5804 5797 5788 5782 5778 5776 5776 5776 5776 5775 5773 5772 5771 5769 5768 5766 5765 5764 5762 5761 5760 5759 5758 5756 5755 5754 5754 5753 5752 5751 5750 5749 5748 5747
5840 5826 5835 5841 5844 5840 5832 5831 5835 5820 5805 5809 5807 5806 5806 5801 5795 5790 5785 5783 5782 5781 5779 5777 5776 5774 5773 5772 5769 5767 5766 5764 5763 5762 5761 5759 5758 5756 5755 5754 5753 5753 5752 5751 5750 5750 5749 5748 5747
5841 5844 5849 5848 5850 5843 5837 5835 5829 5824 5820 5826 5823 5817 5808 5800 5796 5793 5789 5787 5785 5783 5782 5780 5778 5776 5775 5773 5770 5768 5766 5764 5763 5762 5761 5759 5757 5756 5754 5753 5753 5752 5751 5750 5750 5749 5749 5748 5746
5840 5842 5852 5854 5851 5848 5843 5835 5830 5825 5830 5829 5824 5817 5809 5803 5800 5798 5797 5793 5790 5786 5785 5783 5782 5779 5777 5773 5771 5769 5767 5765 5764 5763 5761 5759 5757 5755 5754 5753 5752 5752 5751 5750 5750 5749 5749 5748 5747
5842 5844 5847 5849 5848 5848 5838 5832 5828 5822 5829 5824 5819 5813 5810 5805 5803 5800 5797 5793 5791 5790 5787 5786 5784 5782 5779 5775 5772 5771 5769 5767 5765 5764 5762 5761 5759 5757 5755 5753 5752 5752 5752 5751 5751 5750 5749 5749 5748
5846 5836 5836 5841 5842 5841 5837 5816 5821 5828 5828 5820 5816 5813 5810 5808 5806 5802 5801 5798 5796 5793 5790 5788 5786 5784 5780 5778 5775 5773 5770 5768 5766 5765 5763 5762 5760 5758 5756 5754 5753 5753 5753 5752 5751 5750 5749 5748 5748
5832 5821 5811 5829 5839 5838 5825 5796 5817 5828 5825 5816 5815 5813 5810 5809 5809 5808 5805 5802 5799 5795 5791 5790 5789 5785 5782 5779 5776 5774 5772 5769 5767 5765 5763 5762 5760 5758 5756 5755 5754 5753 5753 5752 5751 5749 5748 5747 5746
5804 5796 5802 5818 5838 5835 5820 5802 5818 5827 5823 5816 5816 5814 5811 5808 5808 5809 5809 5806 5802 5798 5794 5790 5789 5785 5783 5780 5777 5775 5772 5769 5767 5765 5763 5762 5760 5759 5757 5755 5754 5753 5752 5752 5751 5749 5747 5745 5745
5787 5795 5801 5807 5828 5830 5815 5810 5818 5824 5823 5819 5817 5815 5812 5811 5811 5813 5812 5809 5805 5801 5797 5793 5789 5786 5784 5780 5777 5773 5770 5769 5767 5765 5764 5762 5761 5759 5757 5755 5754 5754 5752 5751 5750 5748 5748 5746 5745
5801 5798 5797 5812 5832 5823 5812 5810 5815 5821 5821 5818 5816 5815 5813 5815 5817 5816 5814 5810 5806 5802 5797 5794 5789 5787 5783 5779 5774 5770 5767 5767 5766 5765 5764 5763 5761 5760 5758 5756 5755 5754 5752 5751 5750 5748 5746 5745 5745
5799 5793 5796 5810 5827 5819 5806 5806 5815 5819 5820 5822 5820 5817 5816 5814 5814 5814 5812 5810 5807 5803 5799 5795 5792 5788 5785 5782 5778 5774 5770 5768 5767 5766 5765 5763 5762 5760 5758 5757 5755 5754 5752 5750 5749 5747 5744 5744 5744
5795 5793 5796 5799 5812 5815 5802 5789 5800 5813 5820 5822 5823 5822 5821 5820 5817 5815 5813 5811 5808 5805 5802 5800 5794 5791 5788 5784 5780 5775 5771 5768 5765 5764 5763 5763 5762 5760 5759 5758 5756 5754 5752 5750 5749 5748 5745 5741 5743
5783 5808 5810 5805 5790 5777 5790 5759 5782 5800 5806 5813 5817 5820 5822 5823 5822 5819 5816 5812 5810 5809 5807 5803 5798 5793 5790 5786 5781 5774 5769 5764 5765 5765 5764 5763 5762 5760 5759 5758 5756 5754 5752 5751 5750 5749 5747 5744 5740
5798 5815 5811 5804 5788 5773 5777 5762 5772 5792 5792 5805 5816 5823 5825 5826 5825 5822 5820 5818 5815 5812 5808 5804 5799 5795 5791 5787 5783 5777 5772 5769 5768 5766 5764 5763 5762 5761 5759 5758 5756 5754 5753 5751 5750 5749 5747 5745 5742
5811 5804 5795 5779 5766 5749 5767 5762 5763 5785 5799 5810 5820 5826 5828 5830 5829 5826 5825 5820 5816 5813 5809 5804 5799 5795 5792 5788 5784 5780 5774 5771 5767 5765 5763 5762 5761 5761 5759 5758 5756 5755 5753 5752 5750 5749 5747 5745 5743
5796 5763 5740 5739 5729 5738 5766 5765 5768 5805 5820 5823 5824 5828 5831 5832 5828 5824 5821 5818 5815 5812 5810 5804 5799 5794 5792 5789 5785 5782 5777 5774 5770 5767 5764 5761 5759 5759 5758 5757 5756 5754 5753 5753 5751 5749 5747 5746 5743
5779 5761 5732 5723 5724 5737 5762 5761 5785 5818 5828 5832 5833 5832 5831 5829 5828 5826 5825 5822 5818 5814 5810 5805 5800 5796 5793 5790 5786 5783 5780 5776 5773 5770 5767 5764 5762 5761 5760 5758 5756 5755 5754 5753 5751 5749 5747 5746 5744
5774 5760 5761 5739 5740 5736 5746 5767 5792 5813 5818 5821 5823 5824 5824 5826 5827 5826 5825 5822 5819 5814 5810 5807 5802 5798 5795 5792 5787 5783 5781 5777 5774 5772 5769 5766 5764 5762 5761 5759 5757 5756 5754 5752 5750 5748 5746 5745 5743
5785 5773 5746 5733 5720 5720 5739 5754 5762 5787 5798 5809 5813 5816 5820 5824 5824 5823 5822 5820 5818 5817 5813 5808 5804 5800 5797 5793 5789 5786 5782 5779 5776 5772 5769 5766 5765 5763 5761 5759 5757 5755 5753 5751 5749 5747 5746 5743 5742
5772 5766 5746 5730 5728 5718 5720 5740 5785 5790 5799 5804 5810 5814 5817 5819 5820 5819 5819 5818 5818 5816 5812 5807 5803 5799 5795 5793 5789 5786 5783 5779 5776 5772 5770 5768 5766 5763 5761 5759 5756 5754 5752 5750 5748 5746 5744 5741 5740
5772 5763 5745 5728 5726 5725 5721 5739 5793 5798 5803 5806 5808 5810 5813 5816 5817 5816 5815 5813 5812 5810 5809 5806 5802 5798 5796 5793 5789 5786 5782 5778 5775 5772 5770 5768 5765 5763 5761 5758 5755 5753 5751 5749 5746 5744 5742 5740 5737